TimeCST,TemperatureF,Dew PointF,Humidity,Sea Level PressureIn,VisibilityMPH,Wind Direction,Wind SpeedMPH,Gust SpeedMPH,PrecipitationIn,Events,Conditions,WindDirDegrees,DateUTC
12:15 AM,14.0,6.8,73,30.52,10.0,Calm,Calm,-,N/A,,Overcast,0,2014-02-06 06:15:00
12:35 AM,14.0,6.8,73,30.52,10.0,Calm,Calm,-,N/A,,Overcast,0,2014-02-06 06:35:00
12:55 AM,12.2,6.8,79,30.53,10.0,Calm,Calm,-,N/A,,Overcast,0,2014-02-06 06:55:00
1:15 AM,12.2,6.8,79,30.52,10.0,Calm,Calm,-,N/A,,Overcast,0,2014-02-06 07:15:00
1:35 AM,12.2,6.8,79,30.51,10.0,Calm,Calm,-,N/A,,Overcast,0,2014-02-06 07:35:00
1:55 AM,12.2,5.0,73,30.51,10.0,Calm,Calm,-,N/A,,Overcast,0,2014-02-06 07:55:00
2:15 AM,12.2,6.8,79,30.50,10.0,Calm,Calm,-,N/A,,Overcast,0,2014-02-06 08:15:00
2:35 AM,12.2,5.0,73,30.51,10.0,Calm,Calm,-,N/A,,Overcast,0,2014-02-06 08:35:00
2:55 AM,12.2,5.0,73,30.51,10.0,Calm,Calm,-,N/A,,Overcast,0,2014-02-06 08:55:00
3:15 AM,10.4,5.0,79,30.51,10.0,Calm,Calm,-,N/A,,Overcast,0,2014-02-06 09:15:00
3:35 AM,10.4,5.0,79,30.51,10.0,Calm,Calm,-,N/A,,Overcast,0,2014-02-06 09:35:00
3:55 AM,10.4,3.2,73,30.51,10.0,Calm,Calm,-,N/A,,Overcast,0,2014-02-06 09:55:00
4:15 AM,10.4,3.2,73,30.50,10.0,Calm,Calm,-,N/A,,Overcast,0,2014-02-06 10:15:00
4:35 AM,10.4,3.2,73,30.51,10.0,Calm,Calm,-,N/A,,Overcast,0,2014-02-06 10:35:00
4:55 AM,10.4,3.2,73,30.52,10.0,Calm,Calm,-,N/A,,Overcast,0,2014-02-06 10:55:00
5:15 AM,10.4,3.2,73,30.53,10.0,Calm,Calm,-,N/A,,Overcast,0,2014-02-06 11:15:00
5:35 AM,10.4,3.2,73,30.54,10.0,Calm,Calm,-,N/A,,Overcast,0,2014-02-06 11:35:00
5:55 AM,10.4,3.2,73,30.54,10.0,Calm,Calm,-,N/A,,Overcast,0,2014-02-06 11:55:00
6:15 AM,10.4,3.2,73,30.55,10.0,Calm,Calm,-,N/A,,Overcast,0,2014-02-06 12:15:00
6:35 AM,8.6,3.2,79,30.55,10.0,Calm,Calm,-,N/A,,Overcast,0,2014-02-06 12:35:00
6:55 AM,8.6,1.4,73,30.56,10.0,Calm,Calm,-,N/A,,Overcast,0,2014-02-06 12:55:00
7:15 AM,8.6,1.4,73,30.54,10.0,Calm,Calm,-,N/A,,Overcast,0,2014-02-06 13:15:00
7:35 AM,8.6,1.4,73,30.56,10.0,Calm,Calm,-,N/A,,Overcast,0,2014-02-06 13:35:00
7:55 AM,8.6,1.4,73,30.58,10.0,Calm,Calm,-,N/A,,Overcast,0,2014-02-06 13:55:00
8:15 AM,8.6,-0.4,67,30.57,10.0,Calm,Calm,-,N/A,,Overcast,0,2014-02-06 14:15:00
8:35 AM,6.8,-2.2,67,30.59,10.0,Calm,Calm,-,N/A,,Mostly Cloudy,0,2014-02-06 14:35:00
8:55 AM,6.8,-2.2,67,30.59,10.0,Calm,Calm,-,N/A,,Partly Cloudy,0,2014-02-06 14:55:00
9:15 AM,6.8,-2.2,67,30.60,10.0,Calm,Calm,-,N/A,,Clear,0,2014-02-06 15:15:00
9:35 AM,8.6,-2.2,62,30.61,10.0,Calm,Calm,-,N/A,,Clear,0,2014-02-06 15:35:00
9:55 AM,8.6,-0.4,67,30.61,10.0,Calm,Calm,-,N/A,,Clear,0,2014-02-06 15:55:00
10:15 AM,8.6,-2.2,62,30.61,10.0,Calm,Calm,-,N/A,,Clear,0,2014-02-06 16:15:00
10:35 AM,8.6,-2.2,62,30.60,10.0,Calm,Calm,-,N/A,,Clear,0,2014-02-06 16:35:00
10:55 AM,8.6,-2.2,62,30.60,10.0,Calm,Calm,-,N/A,,Clear,0,2014-02-06 16:55:00
11:15 AM,10.4,-2.2,57,30.59,10.0,Calm,Calm,-,N/A,,Clear,0,2014-02-06 17:15:00
11:35 AM,10.4,-2.2,57,30.58,10.0,Calm,Calm,-,N/A,,Clear,0,2014-02-06 17:35:00
11:55 AM,10.4,-4.0,52,30.57,10.0,Calm,Calm,-,N/A,,Clear,0,2014-02-06 17:55:00
12:15 PM,10.4,-2.2,57,30.56,10.0,Calm,Calm,-,N/A,,Clear,0,2014-02-06 18:15:00
12:35 PM,10.4,-2.2,57,30.55,10.0,Calm,Calm,-,N/A,,Clear,0,2014-02-06 18:35:00
12:55 PM,10.4,-2.2,57,30.54,10.0,Calm,Calm,-,N/A,,Clear,0,2014-02-06 18:55:00
1:15 PM,10.4,-4.0,52,30.53,10.0,Calm,Calm,-,N/A,,Clear,0,2014-02-06 19:15:00
1:35 PM,10.4,-2.2,57,30.53,10.0,Calm,Calm,-,N/A,,Clear,0,2014-02-06 19:35:00
1:55 PM,10.4,-4.0,52,30.52,10.0,Calm,Calm,-,N/A,,Clear,0,2014-02-06 19:55:00
2:15 PM,10.4,-2.2,57,30.51,10.0,Calm,Calm,-,N/A,,Clear,0,2014-02-06 20:15:00
2:35 PM,10.4,-2.2,57,30.52,10.0,Calm,Calm,-,N/A,,Clear,0,2014-02-06 20:35:00
2:55 PM,10.4,-4.0,52,30.52,10.0,Calm,Calm,-,N/A,,Clear,0,2014-02-06 20:55:00
3:15 PM,10.4,-2.2,57,30.52,10.0,Calm,Calm,-,N/A,,Clear,0,2014-02-06 21:15:00
3:35 PM,10.4,-2.2,57,30.52,10.0,Calm,Calm,-,N/A,,Clear,0,2014-02-06 21:35:00
3:55 PM,12.2,-2.2,53,30.52,10.0,Calm,Calm,-,N/A,,Clear,0,2014-02-06 21:55:00
4:15 PM,10.4,-2.2,57,30.52,10.0,Calm,Calm,-,N/A,,Mostly Cloudy,0,2014-02-06 22:15:00
4:35 PM,10.4,-2.2,57,30.52,10.0,Calm,Calm,-,N/A,,Overcast,0,2014-02-06 22:35:00
4:55 PM,10.4,-4.0,52,30.52,10.0,Calm,Calm,-,N/A,,Partly Cloudy,0,2014-02-06 22:55:00
5:15 PM,10.4,-5.8,48,30.53,10.0,Calm,Calm,-,N/A,,Clear,0,2014-02-06 23:15:00
5:35 PM,10.4,-5.8,48,30.52,10.0,Calm,Calm,-,N/A,,Clear,0,2014-02-06 23:35:00
5:55 PM,8.6,-5.8,52,30.52,10.0,Calm,Calm,-,N/A,,Mostly Cloudy,0,2014-02-06 23:55:00
6:15 PM,8.6,-5.8,52,30.52,10.0,Calm,Calm,-,N/A,,Scattered Clouds,0,2014-02-07 00:15:00
6:35 PM,8.6,-5.8,52,30.52,10.0,Calm,Calm,-,N/A,,Clear,0,2014-02-07 00:35:00
6:55 PM,6.8,-4.0,61,30.52,10.0,Calm,Calm,-,N/A,,Clear,0,2014-02-07 00:55:00
7:15 PM,6.8,-5.8,56,30.52,10.0,Calm,Calm,-,N/A,,Clear,0,2014-02-07 01:15:00
7:35 PM,3.2,-5.8,66,30.51,10.0,Calm,Calm,-,N/A,,Clear,0,2014-02-07 01:35:00
7:55 PM,5.0,-2.2,72,30.50,10.0,Calm,Calm,-,N/A,,Clear,0,2014-02-07 01:55:00
8:15 PM,1.4,-7.6,66,30.50,10.0,Calm,Calm,-,N/A,,Clear,0,2014-02-07 02:15:00
8:35 PM,3.2,-2.2,78,30.49,10.0,Calm,Calm,-,N/A,,Clear,0,2014-02-07 02:35:00
8:55 PM,1.4,-9.4,61,30.50,10.0,Calm,Calm,-,N/A,,Clear,0,2014-02-07 02:55:00
9:15 PM,-2.2,-5.8,85,30.50,10.0,Calm,Calm,-,N/A,,Clear,0,2014-02-07 03:15:00
9:35 PM,-0.4,-7.6,72,30.50,10.0,Calm,Calm,-,N/A,,Clear,0,2014-02-07 03:35:00
9:55 PM,-2.2,-7.6,78,30.50,10.0,Calm,Calm,-,N/A,,Clear,0,2014-02-07 03:55:00
10:15 PM,-2.2,-7.6,78,30.50,10.0,Calm,Calm,-,N/A,,Clear,0,2014-02-07 04:15:00
10:35 PM,-5.8,-7.6,92,30.50,10.0,Calm,Calm,-,N/A,,Clear,0,2014-02-07 04:35:00
10:55 PM,-5.8,-11.2,77,30.50,10.0,Calm,Calm,-,N/A,,Clear,0,2014-02-07 04:55:00
11:15 PM,-5.8,-9.4,84,30.49,10.0,Calm,Calm,-,N/A,,Clear,0,2014-02-07 05:15:00
11:35 PM,-4.0,-5.8,92,30.49,10.0,Calm,Calm,-,N/A,,Clear,0,2014-02-07 05:35:00
11:55 PM,-5.8,-11.2,77,30.49,10.0,Calm,Calm,-,N/A,,Clear,0,2014-02-07 05:55:00